TimeAWST,TemperatureF,Dew PointF,Humidity,Sea Level PressureIn,VisibilityMPH,Wind Direction,Wind SpeedMPH,Gust SpeedMPH,PrecipitationIn,Events,Conditions,WindDirDegrees,DateUTC
12:00 AM,75,56,41,29.89,,Calm,Calm,,,,,,2013-02-12 16:00:00
12:00 AM,75.2,55.4,50,29.89,-9999.0,Calm,Calm,-,N/A,,Clear,0,2013-02-12 16:00:00
1:00 AM,71.6,57.2,60,29.86,6.2,North,8.1,-,N/A,,Unknown,360,2013-02-12 17:00:00
1:32 AM,73.4,59.0,61,29.89,6.2,NNW,21.9,-,N/A,,Unknown,340,2013-02-12 17:32:00
2:00 AM,77.0,57.2,50,29.86,6.2,NNE,6.9,-,N/A,,Unknown,20,2013-02-12 18:00:00
3:00 AM,75,57,43,29.86,,NNE,4.6,,,,,30,2013-02-12 19:00:00
3:00 AM,75.2,57.2,53,29.86,6.2,NNE,4.6,-,N/A,,Unknown,30,2013-02-12 19:00:00
4:00 AM,71.6,55.4,57,29.86,6.2,North,4.6,-,N/A,,Unknown,360,2013-02-12 20:00:00
5:00 AM,69.8,57.2,64,29.86,6.2,Calm,Calm,-,N/A,,Unknown,0,2013-02-12 21:00:00
5:25 AM,78.8,57.2,47,29.86,6.2,East,4.6,-,N/A,,Unknown,90,2013-02-12 21:25:00
6:00 AM,77,54,34,29.88,,Calm,Calm,,,,,,2013-02-12 22:00:00
6:00 AM,77.0,53.6,44,29.86,6.2,Calm,Calm,-,N/A,,Unknown,0,2013-02-12 22:00:00
7:00 AM,75.2,55.4,50,29.89,-9999.0,NE,1.2,-,N/A,,Clear,40,2013-02-12 23:00:00
7:23 AM,84.2,55.4,37,29.89,-9999.0,ENE,4.6,-,N/A,,Clear,70,2013-02-12 23:23:00
8:00 AM,87.8,53.6,31,29.89,-9999.0,ENE,8.1,-,N/A,,Clear,70,2013-02-13 00:00:00
9:00 AM,92,52,16,29.89,19,NE,3.5,,,,Partly Cloudy,40,2013-02-13 01:00:00
9:00 AM,93.2,51.8,24,29.89,-9999.0,NE,3.5,-,N/A,,Clear,40,2013-02-13 01:00:00
10:00 AM,98.6,50.0,19,29.86,-9999.0,NE,8.1,-,N/A,,Clear,50,2013-02-13 02:00:00
11:00 AM,102.2,46.4,15,29.86,-9999.0,NNE,8.1,-,N/A,,Clear,30,2013-02-13 03:00:00
12:00 PM,102,46,8,29.83,,NNW,6.9,,,,,330,2013-02-13 04:00:00
12:00 PM,102.2,46.4,15,29.83,-9999.0,NNW,6.9,-,N/A,,Clear,330,2013-02-13 04:00:00
12:12 PM,105.8,44.6,13,29.83,6.2,NNW,17.3,-,N/A,,Unknown,330,2013-02-13 04:12:00
1:00 PM,100.4,50.0,18,29.80,6.2,WSW,17.3,-,N/A,,Unknown,250,2013-02-13 05:00:00
2:00 PM,102.2,51.8,18,29.80,6.2,WSW,16.1,-,N/A,,Unknown,250,2013-02-13 06:00:00
3:00 PM,101,55,13,29.79,19,WSW,16.1,,,,Partly Cloudy,240,2013-02-13 07:00:00
3:00 PM,100.4,55.4,22,29.80,-9999.0,WSW,16.1,-,N/A,,Clear,240,2013-02-13 07:00:00
4:00 PM,96.8,51.8,22,29.80,-9999.0,WSW,13.8,-,N/A,,Clear,240,2013-02-13 08:00:00
5:00 PM,93.2,51.8,24,29.80,-9999.0,SW,16.1,-,N/A,,Clear,220,2013-02-13 09:00:00
6:00 PM,91,53,18,29.80,,SW,12.7,,,,,230,2013-02-13 10:00:00
6:00 PM,91.4,53.6,28,29.80,6.2,SW,12.7,-,N/A,,Unknown,230,2013-02-13 10:00:00
7:00 PM,87.8,55.4,33,29.80,-9999.0,SW,9.2,-,N/A,,Clear,230,2013-02-13 11:00:00
8:00 PM,80.6,60.8,51,29.83,-9999.0,West,5.8,-,N/A,,Clear,260,2013-02-13 12:00:00
9:00 PM,78,65,57,29.84,,West,4.6,,,,,280,2013-02-13 13:00:00
9:00 PM,77.0,66.2,69,29.83,-9999.0,West,4.6,-,N/A,,Clear,280,2013-02-13 13:00:00
10:00 PM,75.2,66.2,73,29.86,-9999.0,WNW,3.5,-,N/A,,Clear,290,2013-02-13 14:00:00
11:00 PM,73.4,66.2,78,29.83,-9999.0,NNW,4.6,-,N/A,,Clear,340,2013-02-13 15:00:00